KIRCHDORF Weather Reports


time (UTC)temp
C
wind
direction
speed
KPH
gust
KPH
rain 1hr
cm
rain 24hr
cm
rain mn
cm
humidity
%
barometer
mb
20260507093211 11 297 17.7 0.0 0.00 0.00 0.03 82 1015.0
20260507090211 11 224 16.1 0.0 0.00 0.00 0.03 86 1014.8
20260507083212 10 242 22.5 0.0 0.00 0.00 0.03 88 1014.6
20260507080211 10 269 12.9 0.0 0.00 0.00 0.00 90 1014.5
20260507073212 9 196 12.9 0.0 0.00 0.00 0.00 90 1014.3
20260507070212 9 272 22.5 0.0 0.00 0.00 0.00 87 1014.0
20260507063211 9 232 27.4 0.0 0.00 0.00 0.00 87 1013.7
20260507060211 9 241 20.9 0.0 0.00 0.00 0.00 88 1013.4
20260507053211 8 265 22.5 0.0 0.00 0.00 0.00 89 1013.2
20260507050213 8 205 19.3 0.0 0.00 0.00 0.00 89 1012.8
20260507043211 8 265 22.5 0.0 0.00 0.00 0.00 90 1012.5
20260507040216 8 271 16.1 0.0 0.00 0.00 0.00 89 1012.1
20260507033211 8 174 11.3 0.0 0.00 0.00 0.00 88 1012.0
20260507030211 8 256 12.9 0.0 0.00 0.00 0.00 87 1011.9
20260507023211 8 224 11.3 0.0 0.00 0.00 0.00 88 1011.6
20260507020211 7 262 17.7 0.0 0.00 0.00 0.00 92 1011.7
20260507013212 7 144 16.1 0.0 0.00 0.00 0.00 93 1011.4
20260507010211 7 187 9.7 0.0 0.00 0.00 0.00 93 1011.5
20260507003209 7 176 8.0 0.0 0.00 0.00 0.00 92 1011.5
20260507000209 7 244 6.4 0.0 0.00 0.00 0.00 91 1011.6
20260506233209 8 236 14.5 0.0 0.00 0.00 0.00 91 1011.4
20260506230209 8 242 12.9 0.0 0.00 0.00 0.00 91 1011.2
20260506223209 8 200 11.3 0.0 0.00 0.00 0.00 91 1011.3
20260506213209 8 221 9.7 0.0 0.00 0.00 0.61 91 1011.1
20260506210210 8 208 9.7 0.0 0.00 0.00 0.61 90 1010.9
20260506203210 9 262 16.1 0.0 0.00 0.00 0.61 90 1010.7
20260506200210 9 257 11.3 0.0 0.00 0.00 0.61 91 1010.6
20260506193215 9 255 11.3 0.0 0.00 0.00 0.61 90 1010.5
20260506190211 9 188 12.9 0.0 0.00 0.00 0.61 89 1009.9
20260506183209 10 229 19.3 0.0 0.00 0.00 0.61 87 1009.7
20260506180216 10 248 24.1 0.0 0.00 0.00 0.61 88 1009.2
20260506173210 10 251 22.5 0.0 0.00 0.00 0.61 88 1008.9
20260506170215 10 248 22.5 0.0 0.00 0.00 0.61 87 1008.2
20260506163210 10 269 25.7 0.0 0.00 0.00 0.61 89 1008.6
20260506160210 10 227 32.2 0.0 0.00 0.00 0.61 90 1008.4
20260506153210 11 284 32.2 0.0 0.00 0.00 0.61 90 1007.8
20260506150210 15 223 37.0 0.0 0.00 0.00 0.05 76 1006.4
20260506143210 16 217 8.0 0.0 0.00 0.00 0.05 71 1005.5
20260506140210 15 186 12.9 0.0 0.00 0.00 0.05 80 1005.6
20260506133211 16 190 8.0 0.0 0.00 0.00 0.00 66 1006.1
20260506130211 17 234 4.8 0.0 0.00 0.00 0.00 62 1006.0
20260506123210 17 86 8.0 0.0 0.00 0.00 0.00 60 1005.6
20260506120210 17 48 14.5 0.0 0.00 0.00 0.00 62 1005.3
20260506113217 17 31 11.3 0.0 0.00 0.00 0.00 63 1005.7
20260506110210 16 79 11.3 0.0 0.00 0.00 0.00 61 1006.1
20260506100213 15 26 8.0 0.0 0.00 0.00 0.00 67 1006.6